SQ6ELQ-11 Weather Reports


time (UTC)temp
F
wind
direction
speed
knots
gust
knots
rain 1hr
in
rain 24hr
in
rain mn
in
humidity
%
barometer
mb
20260502194751 50 0 0.0 0.0 0.00 0.00 0.00 43 1020.3
20260502193032 51 0 0.0 0.0 0.00 0.00 0.00 42 1020.3
20260502191100 52 0 0.0 0.0 0.00 0.00 0.00 40 1020.3
20260502185221 53 0 0.0 0.0 0.00 0.00 0.00 37 1020.2
20260502183518 55 0 0.0 0.0 0.00 0.00 0.00 34 1020.2
20260502181813 59 0 0.0 0.0 0.00 0.00 0.00 30 1020.3
20260502170459 71 0 0.0 0.0 0.00 0.00 0.00 15 1019.9
20260502162911 72 0 0.0 0.0 0.00 0.00 0.00 12 1020.2
20260502161113 72 0 0.0 0.0 0.00 0.00 0.00 13 1020.3
20260502151754 73 0 0.0 0.0 0.00 0.00 0.00 11 1020.9
20260502123506 72 0 0.0 0.0 0.00 0.00 0.00 23 1022.5
20260502121636 70 0 0.0 0.0 0.00 0.00 0.00 25 1022.8
20260502114241 69 0 0.0 0.0 0.00 0.00 0.00 24 1023.1
20260502112453 69 0 0.0 0.0 0.00 0.00 0.00 27 1023.3
20260502110623 69 0 0.0 0.0 0.00 0.00 0.00 27 1023.5
20260502104749 68 0 0.0 0.0 0.00 0.00 0.00 28 1023.6
20260502102937 68 0 0.0 0.0 0.00 0.00 0.00 29 1023.7
20260502101134 67 0 0.0 0.0 0.00 0.00 0.00 29 1023.9
20260502071311 57 0 0.0 0.0 0.00 0.00 0.00 43 1025.0
20260502065601 55 0 0.0 0.0 0.00 0.00 0.00 46 1025.0
20260502063853 52 0 0.0 0.0 0.00 0.00 0.00 57 1024.9
20260502062111 51 0 0.0 0.0 0.00 0.00 0.00 59 1025.1
20260502060156 49 0 0.0 0.0 0.00 0.00 0.00 61 1025.1
20260502054436 45 0 0.0 0.0 0.00 0.00 0.00 63 1025.0
20260502052600 42 0 0.0 0.0 0.00 0.00 0.00 63 1025.1
20260502050806 40 0 0.0 0.0 0.00 0.00 0.00 63 1025.0
20260502044922 37 0 0.0 0.0 0.00 0.00 0.00 63 1025.1
20260502043141 36 0 0.0 0.0 0.00 0.00 0.00 69 1025.1
20260502041351 35 0 0.0 0.0 0.00 0.00 0.00 67 1025.1
20260502035531 35 0 0.0 0.0 0.00 0.00 0.00 68 1025.0
20260502033629 35 0 0.0 0.0 0.00 0.00 0.00 67 1025.1
20260502031711 35 0 0.0 0.0 0.00 0.00 0.00 68 1025.2
20260502025923 35 0 0.0 0.0 0.00 0.00 0.00 67 1025.2
20260502024001 35 0 0.0 0.0 0.00 0.00 0.00 67 1025.3
20260502022226 35 0 0.0 0.0 0.00 0.00 0.00 67 1025.4
20260502020501 35 0 0.0 0.0 0.00 0.00 0.00 67 1025.5
20260502014636 36 0 0.0 0.0 0.00 0.00 0.00 67 1025.4
20260502012812 36 0 0.0 0.0 0.00 0.00 0.00 67 1025.5
20260502010941 36 0 0.0 0.0 0.00 0.00 0.00 66 1025.5
20260502005041 36 0 0.0 0.0 0.00 0.00 0.00 65 1025.6
20260502003251 37 0 0.0 0.0 0.00 0.00 0.00 65 1025.8
20260502001506 37 0 0.0 0.0 0.00 0.00 0.00 64 1025.8
20260501235706 38 0 0.0 0.0 0.00 0.00 0.00 65 1025.9
20260501233816 38 0 0.0 0.0 0.00 0.00 0.00 63 1025.9
20260501231919 38 0 0.0 0.0 0.00 0.00 0.00 62 1026.0
20260501230211 39 0 0.0 0.0 0.00 0.00 0.00 63 1026.1
20260501224412 39 0 0.0 0.0 0.00 0.00 0.00 60 1026.2
20260501222546 39 0 0.0 0.0 0.00 0.00 0.00 60 1026.2
20260501214711 41 0 0.0 0.0 0.00 0.00 0.00 58 1026.3
20260501212936 41 0 0.0 0.0 0.00 0.00 0.00 56 1026.3
20260501211131 42 0 0.0 0.0 0.00 0.00 0.00 55 1026.4
20260501205358 42 0 0.0 0.0 0.00 0.00 0.00 53 1026.4
20260501203602 43 0 0.0 0.0 0.00 0.00 0.00 53 1026.5
20260501201846 45 0 0.0 0.0 0.00 0.00 0.00 51 1026.6